Vorticity
nan nan nan nan nan nan nan nan nan nan nan nan nan nan nan nan nan nan nan nan nan nan nan nan nan nan nan nan nan nan nan nan nan nan nan nan nan nan nan nan nan nan nan
nan 9 8 8 7 8 9 9 8 9 9 9 7 6 3 7 10 4 4 11 12 16 20 12 7 7 7 7 7 7 7 6 7 7 6 7 6 6 6 6 7 7 nan
nan 9 8 7 7 8 8 9 8 10 11 10 8 7 8 10 6 10 6 9 8 9 12 15 14 8 8 7 7 7 7 7 7 7 7 6 7 6 6 7 6 6 nan
nan 10 8 7 8 9 9 8 8 9 9 10 10 9 11 11 9 9 7 7 5 7 13 10 7 14 15 9 6 6 5 6 7 7 7 7 7 7 6 6 6 6 nan
nan 10 8 7 9 10 9 9 9 9 7 7 9 11 10 9 9 10 8 6 7 6 10 15 13 10 9 11 10 7 7 5 6 7 6 7 7 8 7 6 6 6 nan
nan 11 7 8 9 9 7 8 9 12 10 8 11 11 11 9 8 9 9 9 10 7 9 10 12 14 13 9 12 9 6 7 8 8 7 6 6 8 8 8 6 6 nan
nan 10 8 7 8 8 7 9 10 10 8 10 14 10 12 12 12 10 9 9 9 11 10 9 9 10 17 16 10 11 10 10 8 8 8 8 8 7 8 8 8 7 nan
nan 8 9 8 8 7 6 7 11 12 8 7 12 9 8 9 11 12 12 11 9 10 10 10 9 9 9 15 18 14 10 12 12 8 7 8 9 8 7 8 8 8 nan
nan 7 8 9 8 9 8 7 7 10 12 7 9 12 8 6 7 10 10 9 11 11 11 11 10 9 9 9 10 15 16 12 11 11 9 7 8 8 8 8 8 8 nan
nan 8 8 9 10 8 8 9 9 8 8 10 10 9 8 9 6 7 6 7 7 7 8 9 11 10 10 10 11 12 12 12 11 10 11 11 9 9 9 8 9 9 nan
nan 8 10 10 10 9 7 8 9 11 11 9 9 8 9 13 11 7 6 3 1 6 9 8 7 10 11 11 11 11 11 12 11 11 10 10 12 14 10 8 8 8 nan
nan 7 9 10 9 9 9 9 9 10 10 11 10 10 12 9 11 9 7 4 7 7 7 8 10 8 7 10 9 8 13 14 13 14 12 10 11 13 10 7 8 7 nan
nan 7 9 10 9 8 9 10 10 9 10 10 10 10 9 10 10 9 9 11 9 6 6 9 11 5 9 10 9 11 16 15 15 13 12 12 12 9 9 8 9 10 nan
nan 8 9 8 9 9 10 11 11 8 9 8 10 12 10 9 10 10 10 10 13 10 7 10 10 11 7 6 5 10 11 13 19 17 15 12 12 10 12 18 14 9 nan
nan 9 9 8 8 9 10 12 9 9 10 9 9 10 12 10 9 10 9 10 10 9 10 12 3 6 8 9 6 6 6 6 8 17 19 15 14 12 11 14 16 15 nan
nan 9 9 8 9 8 10 12 8 9 10 11 8 9 11 9 10 11 11 11 10 10 9 8 6 4 5 4 6 6 6 9 11 8 15 20 15 11 10 9 10 13 nan
nan 9 8 9 9 9 11 11 8 8 9 10 9 9 8 11 13 10 11 11 10 11 11 6 9 12 10 10 9 7 8 10 14 11 14 16 14 11 10 9 9 9 nan
nan 8 8 9 9 10 10 10 9 8 8 8 10 9 10 11 11 12 11 10 11 11 11 10 12 12 13 14 13 14 16 11 8 9 9 17 22 16 11 12 11 10 nan
nan 8 9 8 10 12 11 9 9 9 9 8 10 9 9 12 13 11 12 10 11 13 14 16 17 16 13 7 13 15 13 13 6 10 12 16 23 30 20 17 13 8 nan
nan 8 9 9 11 9 9 9 9 9 9 8 9 11 11 12 12 14 12 10 11 13 14 14 14 14 14 13 12 9 11 8 9 12 13 15 18 21 17 15 18 23 nan
nan 8 8 9 10 10 12 12 9 9 8 8 8 8 6 6 12 19 16 11 13 13 13 12 11 10 7 10 13 13 10 11 10 9 12 11 12 9 9 8 11 26 nan
nan 8 8 8 9 7 10 14 14 8 7 8 8 8 8 4 6 7 11 13 16 15 14 12 10 8 9 11 12 12 12 13 10 6 14 10 7 9 8 3 5 12 nan
nan 7 8 9 11 7 7 8 13 11 7 8 9 7 8 8 9 8 4 7 5 9 17 15 10 10 9 10 15 12 14 16 9 6 16 10 7 9 6 -0 3 10 nan
nan 6 7 9 11 6 8 9 10 12 8 9 10 10 8 7 11 16 12 9 8 7 9 14 11 12 12 13 18 13 16 20 8 1 13 14 9 10 8 1 1 9 nan
nan 10 9 8 11 8 6 10 12 12 10 9 9 13 14 3 6 20 17 11 10 7 3 5 9 9 9 12 23 21 12 15 13 4 9 14 10 13 10 6 -1 -1 nan
nan nan nan nan nan nan nan nan nan nan nan nan nan nan nan nan nan nan nan nan nan nan nan nan nan nan nan nan nan nan nan nan nan nan nan nan nan nan nan nan nan nan nan
CAPE
0 0 0 2 0 0 0 1 4 28 7 41 8 18 3 0 0 92 521 276 227 885 1728 2091 2323 2005 1755 1689 1391 1370 1427 1338 1196 1073 819 660 597 440 628 693 696 620 534
0 0 0 0 0 0 0 0 0 125 8 0 1 0 0 0 0 6 528 369 235 196 1054 1552 1867 2237 2343 1754 1435 1266 1314 1285 1190 1109 881 572 488 329 494 559 501 508 460
0 0 0 0 0 0 0 0 0 0 4 0 0 0 0 0 0 18 276 409 223 195 103 546 1171 1437 1936 2057 1494 1341 1267 1126 1106 1099 918 610 436 354 375 428 376 411 439
0 0 0 0 0 0 0 0 0 0 0 0 0 0 0 3 0 2 291 285 176 190 268 75 76 583 891 1449 1780 1471 1526 1255 1137 1099 938 705 453 374 296 308 310 297 332
0 0 0 0 0 0 0 0 0 0 0 0 0 0 0 0 0 4 38 131 251 226 245 306 154 108 407 715 1026 1797 1557 1218 1313 1279 1096 824 593 371 313 254 241 206 187
0 0 0 0 0 0 0 0 0 0 0 0 0 0 0 14 25 24 11 122 204 286 467 477 194 50 3 201 622 1112 1755 1583 1517 1481 1354 1108 786 474 297 255 251 232 171
0 0 0 0 0 0 0 0 0 0 0 0 0 0 0 0 49 202 277 260 222 449 608 644 395 270 44 0 126 766 1384 1752 1745 1667 1358 1212 929 597 364 256 234 213 214
0 0 0 0 0 0 0 0 0 0 0 0 0 1 0 0 0 0 49 140 282 299 396 476 509 451 303 162 43 101 691 1152 1372 1666 1525 1217 910 667 439 311 248 216 210
0 0 0 0 0 0 0 0 0 0 0 0 0 1 2 0 0 0 0 0 27 20 35 127 261 292 277 273 213 3 0 53 529 995 1051 961 831 712 546 389 274 225 182
0 0 0 0 0 0 2 3 1 1 1 1 0 0 1 1 11 0 0 0 0 0 0 0 6 45 71 121 264 321 85 0 0 124 573 735 709 710 554 484 329 246 205
0 0 0 0 0 0 3 1 3 4 1 2 6 8 1 0 0 9 1 0 0 0 0 0 0 0 6 121 142 63 82 0 0 0 20 300 547 595 578 433 337 262 234
0 0 0 0 0 0 0 0 6 5 5 1 2 2 6 4 3 6 5 1 0 0 0 0 0 0 0 0 1 171 116 0 1 0 0 4 159 401 541 544 436 339 258
0 0 0 0 0 0 0 1 2 6 5 7 4 5 5 5 8 10 8 4 1 0 0 0 0 0 0 0 0 0 4 8 1 1 0 0 4 57 91 370 452 351 294
0 0 0 0 0 0 0 0 7 0 1 2 3 3 4 2 7 9 9 15 6 0 1 0 0 0 0 0 0 0 0 0 0 1 1 0 0 0 3 32 147 168 192
0 0 0 0 0 0 0 0 0 0 0 0 2 3 8 10 4 4 9 11 14 9 3 4 1 0 0 0 0 0 0 0 0 0 1 1 0 0 0 1 1 16 36
0 0 0 0 0 0 0 0 0 0 0 0 0 1 3 2 1 1 0 6 6 9 8 8 12 13 14 5 0 0 0 0 0 0 0 1 1 1 1 1 1 1 0
0 0 0 0 0 0 0 1 0 0 1 1 0 0 1 0 0 10 11 12 19 18 15 17 26 17 9 9 1 0 0 0 0 0 0 0 1 1 1 1 1 1 1
0 0 0 0 0 0 0 1 0 0 1 3 3 2 2 4 1 0 6 7 6 9 15 12 6 0 26 24 1 23 16 4 0 0 0 0 0 1 1 1 1 1 1
0 0 0 0 0 1 0 0 0 0 0 4 4 4 3 12 6 1 14 10 7 7 12 15 12 9 0 3 0 0 0 0 0 0 0 0 1 1 1 1 1 1 1
0 0 0 0 0 0 0 0 0 0 0 2 3 4 4 12 12 6 9 5 3 5 10 15 13 14 5 4 0 2 0 0 0 0 0 0 1 0 0 1 1 1 1
0 0 0 0 0 0 1 0 0 0 1 0 0 1 7 6 7 11 15 7 3 4 5 10 11 10 8 6 7 6 6 3 1 1 0 4 4 2 2 2 2 1 0
0 0 0 0 0 3 4 1 0 0 0 0 0 0 0 1 0 3 8 11 9 4 5 6 8 9 9 6 6 9 10 7 6 0 2 2 3 2 5 5 5 3 1
0 0 0 0 0 0 4 2 0 0 0 0 0 0 0 0 0 0 0 1 2 8 10 5 4 5 5 4 3 6 6 6 5 5 3 1 0 0 1 4 5 6 6
0 0 0 0 0 0 3 1 0 0 0 0 0 0 0 0 0 0 0 0 0 0 0 4 0 0 1 2 3 4 4 9 2 1 1 1 0 1 0 0 4 4 3
0 0 0 0 0 0 5 2 0 0 0 0 0 0 0 0 7 7 0 0 0 0 0 4 4 3 2 4 2 0 0 1 2 2 0 0 0 0 0 0 0 2 1
0 0 0 0 0 0 3 5 0 0 0 0 0 0 7 2 7 7 0 0 0 0 0 0 0 0 0 0 0 0 0 4 1 0 1 0 1 0 0 0 0 0 0